Weather History for Kuala Lumpur Aziz, Malaysia

Change the Weather History Date:

Wednesday, December 11, 2013

  Actual Average Record
Temperature  
Mean Temperature 84 °F -  
Max Temperature 91 °F - - ()
Min Temperature 77 °F - - ()
Cooling Degree Days 19    
Growing Degree Days 34 (Base 50)    
Moisture  
Dew Point 76 °F    
Average Humidity 85    
Maximum Humidity 94    
Minimum Humidity 63    
Precipitation  
Precipitation 0.00 in - - ()
Sea Level Pressure  
Sea Level Pressure 29.75 in    
Wind  
Wind Speed 2 mph ()    
Max Wind Speed 8 mph    
Max Gust Speed -    
Visibility 5.5 miles    
Events Thunderstorm    
T = Trace of Precipitation, MM = Missing Value Source: Averaged Metar Reports

Daily Weather History Graph

Daily Weather History Graph

Search for Another Location

Airport:

Trip Planner

Search our weather history database for the weather conditions in past years. The results will help you decide how hot, cold, wet, or windy it might be!

Date:

Astronomy

Dec. 11, 2013 Rise Set
Actual Time 7:08 AM MYT 7:05 PM MYT
Civil Twilight 6:46 AM MYT 7:27 PM MYT
Nautical Twilight 6:20 AM MYT 7:54 PM MYT
Astronomical Twilight 5:53 AM MYT 8:20 PM MYT
Moon 2:23 PM MYT (12/11) 2:01 AM MYT (12/11)
Length of Visible Light 12h 41m
Length of Day
11h 56m
Waxing Gibbous, 66% of the Moon is Illuminated
Dec 11
Waxing Gibbous
Dec 17
Full
Dec 25
Last Quarter
Jan 1
New
Jan 8
First Quarter

Hourly Weather History & Observations

Time (MYT) Temp. Heat Index Dew Point Humidity Pressure Visibility Wind Dir Wind Speed Gust Speed Precip Events Conditions
12:00 AM 77.0 °F - 75.2 °F 94% 29.77 in 5.0 mi WNW 2.3 mph - N/A   Mostly Cloudy
1:00 AM 77.0 °F - 75.2 °F 94% 29.77 in 4.3 mi WNW 3.5 mph - N/A   Mostly Cloudy
2:00 AM 77.0 °F - 75.2 °F 94% 29.77 in 3.7 mi Calm Calm - N/A   Mostly Cloudy
3:00 AM 77.0 °F - 75.2 °F 94% 29.74 in 3.7 mi Calm Calm - N/A   Mostly Cloudy
4:00 AM 77.0 °F - 75.2 °F 94% 29.74 in 3.7 mi Calm Calm - N/A   Mostly Cloudy
5:00 AM 77.0 °F - 75.2 °F 94% 29.74 in 3.7 mi NW 2.3 mph - N/A   Mostly Cloudy
6:00 AM 77.0 °F - 75.2 °F 94% 29.74 in 3.7 mi North 1.2 mph - N/A   Mostly Cloudy
7:00 AM 77.0 °F - 75.2 °F 94% 29.74 in 5.6 mi NW 2.3 mph - N/A   Mostly Cloudy
8:00 AM 77.0 °F - 75.2 °F 94% 29.77 in 6.2 mi NNW 1.2 mph - N/A   Mostly Cloudy
9:00 AM 78.8 °F - 77.0 °F 94% 29.77 in 6.2 mi NE 1.2 mph - N/A   Mostly Cloudy
10:00 AM 84.2 °F 94.1 °F 77.0 °F 79% 29.80 in 6.2 mi NNE 2.3 mph - N/A   Mostly Cloudy
11:00 AM 87.8 °F 99.7 °F 77.0 °F 70% 29.80 in 6.2 mi North 1.2 mph - N/A   Mostly Cloudy
12:00 PM 89.6 °F 102.2 °F 77.0 °F 66% 29.80 in 6.2 mi SSW 3.5 mph - N/A   Mostly Cloudy
1:00 PM 89.6 °F 102.2 °F 77.0 °F 66% 29.77 in 6.2 mi SSE 3.5 mph - N/A   Mostly Cloudy
2:00 PM 91.4 °F 105.1 °F 77.0 °F 63% 29.71 in 6.2 mi SSW 4.6 mph - N/A   Mostly Cloudy
3:00 PM 86.0 °F 96.9 °F 77.0 °F 74% 29.71 in 6.2 mi ENE 3.5 mph - N/A   Mostly Cloudy
4:00 PM 84.2 °F 94.1 °F 77.0 °F 79% 29.68 in 6.2 mi SW 8.1 mph - N/A   Mostly Cloudy
5:00 PM 82.4 °F 90.9 °F 77.0 °F 84% 29.68 in 6.2 mi WSW 6.9 mph - N/A Thunderstorm Thunderstorm
6:00 PM 82.4 °F 89.5 °F 75.2 °F 79% 29.71 in 6.2 mi WSW 3.5 mph - N/A   Mostly Cloudy
7:00 PM 82.4 °F 89.5 °F 75.2 °F 79% 29.71 in 6.2 mi NW 3.5 mph - N/A   Mostly Cloudy
8:00 PM 80.6 °F 87.1 °F 77.0 °F 89% 29.74 in 6.2 mi ENE 1.2 mph - N/A   Mostly Cloudy
9:00 PM 80.6 °F 87.1 °F 77.0 °F 89% 29.74 in 6.2 mi North 1.2 mph - N/A   Mostly Cloudy
10:00 PM 80.6 °F 87.1 °F 77.0 °F 89% 29.77 in 6.2 mi Calm Calm - N/A   Mostly Cloudy
11:00 PM 80.6 °F 87.1 °F 77.0 °F 89% 29.77 in 5.6 mi East 1.2 mph - N/A   Mostly Cloudy